BEIDOU-3 G1 (C59)

Last updated on Jan. 22, 2021, 6:27 a.m. UTC

1 43683U 18085A   21021.89319083 -.00000266  00000-0  00000-0 0  9998
2 43683   1.3134 242.1046 0003040  15.1320 325.8207  1.00273615  8286
UTC
Height (km)
Latitude
Longitude
Inclination
Orbital Period
UTC large
Height (km)
Speed (km/s)
/
Latitude / Longitude
Inclination (degrees)
Orbital Period (minutes)
Azimuth
Elevation
Range (km)
Doppler Factor
iOS Compass Heading
iOS Angle

Next 30 passes for location: Hong Kong

Rise time Rise Azimuth (degrees) Set time Set Azimuth (degrees) Duration Max altitude (degrees)

No matching passes for this satellites